CZ-4C DEB

Satellite information

Favourite Embed

Satellite Type and Status

DEBRISIN ORBIT

Key statistics

Satellite CZ-4C DEB at a glance.

Uptime

4950

Days in orbit

Revolutions

≈ 13.1

Per day

Orbit

SSO

Sun Synchronous Orbit

Inclination

100.1

Latest

Satellite identification and parameters

Extended collection of information and parameters for CZ-4C DEB.

Object identification

Identified? True

Debris? True

Object name: CZ-4C DEB

International designator: 2012-029F

Object number (NORAD): 38664

Object ID (CCSDS): 38664

Country: PEOPLES REPUBLIC OF CHINA (PRC)

Current information (Y/N): Y

RCS size: SMALL

Orbital parameters

Period: 109.707 minutes

Inclination: 100.1355 deg

SMA: 7591.285 km

Apoapsis: 1317.339 km

Periapsis: 1108.961 km

RAAN: 284.5757 deg

Eccentricy: 0.01372484

Argument of periapsis: 95.2732 deg

Mean anomaly: 266.4057 deg

Mean motion: 13.12592253 rev/day

Mean motion (dot): 0.00000203 rev/day2

B* drag term: 0.00064642017 1/REarth

Two-line elements (TLE)

Creation date: Dec. 11, 2025, 10:54 a.m.

Reference frame: TEME

Reference center: EARTH

Epoch: Dec. 11, 2025, 1:15 a.m. UTC

TLE line 0: 0 CZ-4C DEB

TLE line 1: 1 38664U 12029F 25345.05221073 .00000203 00000-0 64642-3 0 9990

TLE line 2: 2 38664 100.1355 284.5757 0137248 95.2732 266.4057 13.12592253585949

Live tracking on map

Real-time ground track for satellite CZ-4C DEB.

In-orbit conjunctions

A list of the most updated potential collisions computed for object CZ-4C DEB.

Target Orbit TCA Probability of collision Miss distance Type
OSCAR 24 SSO 2025-02-21 21:40:50 0.0001005663 284.0 (m) PAYLOAD

Associated space launch

CZ-4C DEB was lifted into orbit during the mission ‘Long March 4C | Yaogan 15’, on board a Long March 4C space rocket.

The launch took place on May 29, 2012, 7:31 a.m. from Launch Complex 9.

For more information about the launch, click the button.

Launch to space Long March 4C | Yaogan 15
Long March 4C | Yaogan 15

Agency: N/A

Status: Launch Successful

Launch date: May 29, 2012, 7:31 a.m. UTC

Rocket: Long March 4C

Launch pad: Launch Complex 9

Location: Taiyuan Satellite Launch Center, People's Republic of China

...

Latest news about this satellite

There are no fresh news available about this satellite. Check back as we update our databases every day.


Newsletter sign-up

Weekly statistics, charts and insights to help you stay on top of the space industry.